Content
SEND FEEDBACK

Daily
Averages
Monthly
Summary
Indonesia

BATOE PORONG, INDONESIA


Home > Asia > Indonesia
Elevation: 10 feet     Latitude: 07 13S     Longitude: 112 43E

WEATHER
 
SELECT A DAY
Number of Records: 85,016;   Date Range: 10/5/04 - 7/9/14
 
SHARE

PRINT THIS DATA

[ ← Previous Day ]
WEATHER ALMANAC - JANUARY 31, 2013
[ Next Day → ]
[ °C ]   °F
Weather ElementAverageHighLow
Temperature81 °F89.6 °F (1:30 pm)75.2 °F (12:30 am)
Dewpoint73.4 °F75.2 °F (7:30 am)71.6 °F (4:00 am)
Humidity78.2 %94 % (12:30 am)62 % (10:00 am)
Barometer29.85 in29.92 in (10:30 am)29.77 in (3:00 pm)
Wind Speed6.3 mph11.5 mph (3:00 pm)
Weather ElementAverage
Visibility4 mi
Wind DirectionSSW (196.6 °)

Weather ElementTotal
Precipitation---
Cooling Degree Days17.4 (Base 65)
Growing Degree Days32.4 (Base 50)
Averaged from 41 records on January 31, 2013
WEATHER CONDITIONS BREAKOUT
WIND DIRECTION BREAKOUT
WEATHER BY HOUR - JANUARY 31, 2013
[ °C ]   °F
Local TimeTemperatureDewpointHumidityBarometerVisibilityWind DirectionWind SpeedGust SpeedPrecipitationEventsConditions
12:30 AM75.2 °F73.4 °F94 %29.86 in1.6 miWest (270°)5.8 mphHaze
1:00 AM75.2 °F73.4 °F94 %29.86 in1.6 miSW (230°)4.6 mphHaze
1:30 AM75.2 °F73.4 °F94 %29.86 in1.6 miWSW (240°)4.6 mphHaze
2:00 AM75.2 °F73.4 °F94 %29.83 in1.6 miWSW (250°)5.8 mphHaze
4:00 AM75.2 °F71.6 °F89 %29.83 in1.6 miSSE (150°)8.1 mphHaze
4:30 AM75.2 °F71.6 °F89 %29.83 in1.6 miWSW (240°)4.6 mphHaze
5:00 AM75.2 °F71.6 °F89 %29.83 in1.6 miSSW (210°)6.9 mphHaze
5:30 AM77.0 °F71.6 °F83 %29.86 in1.6 miWest (270°)10.4 mphHaze
6:00 AM77.0 °F73.4 °F89 %29.86 in3.7 miNW (310°)6.9 mphPartly Cloudy
6:30 AM78.8 °F73.4 °F83 %29.86 in5.0 miWNW (300°)6.9 mphPartly Cloudy
7:00 AM78.8 °F73.4 °F83 %29.89 in4.3 miSW (230°)5.8 mphPartly Cloudy
7:30 AM80.6 °F75.2 °F84 %29.89 in5.0 miWNW (290°)4.6 mphPartly Cloudy
8:00 AM82.4 °F75.2 °F79 %29.89 in5.6 miWNW (290°)6.9 mphPartly Cloudy
8:30 AM82.4 °F73.4 °F74 %29.89 in5.6 miWest (280°)8.1 mphPartly Cloudy
9:00 AM82.4 °F73.4 °F74 %29.89 in5.6 miNW (310°)6.9 mphPartly Cloudy
9:30 AM84.2 °F71.6 °F66 %29.89 in5.6 miNW (310°)3.5 mphPartly Cloudy
10:00 AM86.0 °F71.6 °F62 %29.89 inNorthPartly Cloudy
10:30 AM87.8 °F73.4 °F62 %29.92 in6.2 miENE (70°)5.8 mphPartly Cloudy
11:00 AM87.8 °F73.4 °F62 %29.86 in6.2 miENE (70°)6.9 mphScattered Clouds
11:30 AM86.0 °F73.4 °F66 %29.86 in6.2 miNNE (30°)4.6 mphScattered Clouds
12:00 PM87.8 °F75.2 °F66 %29.83 in6.2 miNE (50°)8.1 mphScattered Clouds
12:30 PM87.8 °F73.4 °F62 %29.83 in6.2 miNE (50°)8.1 mphScattered Clouds
1:00 PM87.8 °F75.2 °F66 %29.80 in6.2 miEast (80°)8.1 mphScattered Clouds
1:30 PM89.6 °F75.2 °F62 %29.80 in6.2 miEast (90°)8.1 mphScattered Clouds
2:00 PM87.8 °F73.4 °F62 %29.80 in6.2 miEast (80°)9.2 mphPartly Cloudy
3:00 PM86.0 °F73.4 °F66 %29.77 in5.0 miNorth (10°)11.5 mphThunderstormThunderstorm
3:30 PM84.2 °F73.4 °F70 %29.77 in3.1 miWest (270°)9.2 mphRain-ThunderstormLight Thunderstorms and Rain
4:00 PM82.4 °F75.2 °F79 %29.80 in3.1 miNW (320°)8.1 mphRain-ThunderstormLight Thunderstorms and Rain
4:30 PM82.4 °F73.4 °F74 %29.80 in3.7 miNorth (360°)11.5 mphThunderstormThunderstorm
5:30 PM80.6 °F71.6 °F74 %29.80 in4.3 miNE (40°)6.9 mphPartly Cloudy
6:00 PM80.6 °F71.6 °F74 %29.83 in4.3 miNorth (350°)3.5 mphThunderstormThunderstorm
6:30 PM78.8 °F71.6 °F78 %29.83 in3.7 miSW (230°)8.1 mphThunderstormThunderstorm
7:00 PM78.8 °F73.4 °F83 %29.83 in3.7 miWSW (250°)6.9 mphThunderstormThunderstorm
7:30 PM78.8 °F73.4 °F83 %29.86 in2.5 miSSW (210°)6.9 mphRain-ThunderstormLight Thunderstorms and Rain
8:30 PM78.8 °F73.4 °F83 %29.86 in3.7 miSW (230°)3.5 mphPartly Cloudy
9:00 PM78.8 °F73.4 °F83 %29.89 in2.5 miSW (220°)4.6 mphRainLight Rain
9:30 PM78.8 °F73.4 °F83 %29.89 in3.1 miSSW (200°)3.5 mphRainLight Rain
10:00 PM78.8 °F75.2 °F89 %29.89 in3.1 miCalmRainLight Rain
10:30 PM78.8 °F73.4 °F83 %29.89 in3.7 miSSW (200°)3.5 mphScattered Clouds
11:00 PM78.8 °F75.2 °F89 %29.89 in4.3 miWest (270°)2.3 mphScattered Clouds
11:30 PM78.8 °F75.2 °F89 %29.86 in4.3 miSSW (200°)2.3 mphPartly Cloudy
Hourly data recorded from WARR, located miles away from Batoe Porong, Indonesia







STORIES FROM OUR PARTNERS